Weather History for Bridgeport, CT

Change the Weather History Date:

Thursday, December 5, 2013

  Actual Average Record
Temperature  
Mean Temperature 10 °C 4 °C  
Max Temperature 13 °C 8 °C 16 °C (2001)
Min Temperature 7 °C 0 °C -8 °C (1989)
Degree Days  
Heating Degree Days 15 26  
Month to date heating degree days 111 127  
Since 1 July heating degree days 1064 1101  
Cooling Degree Days 0 0  
Month to date cooling degree days 0 0  
Year to date cooling degree days 1003 825  
Moisture  
Dew Point 9 °C    
Average Humidity 88    
Maximum Humidity 100    
Minimum Humidity 76    
Precipitation  
Precipitation 1.02 mm 2.79 mm 6.05 mm (1993)
Month to date precipitation 0.05 0.59  
Year to date precipitation 32.38 40.00  
Snow  
Snow 0.00 cm 0.25 cm 16.51 cm (2002)
Month to date snowfall 0.0 0.5  
Since 1 July snowfall 0.1 1.2  
Snow Depth 0.00 cm    
Sea Level Pressure  
Sea Level Pressure 1017 hPa    
Wind  
Wind Speed 10 km/h (East)    
Max Wind Speed 21 km/h    
Max Gust Speed 26 km/h    
Visibility 4 kilometers    
Events Fog , Rain    
T = Trace of Precipitation, MM = Missing Value Source: NWS Daily Summary

Daily Weather History Graph

Daily Weather History Graph

Search for Another Location

Airport:

Trip Planner

Search our weather history database for the weather conditions in past years. The results will help you decide how hot, cold, wet, or windy it might be!

Date:

Astronomy

Dec. 05, 2013 Rise Set
Actual Time 7:02 AM EST 4:23 PM EST
Civil Twilight 6:31 AM EST 4:54 PM EST
Nautical Twilight 5:57 AM EST 5:28 PM EST
Astronomical Twilight 5:24 AM EST 6:02 PM EST
Moon 9:19 AM EST (12/5) 7:42 PM EST (12/5)
Length of Visible Light 10h 22m
Length of Day
9h 21m
Waxing Crescent, 10% of the Moon is Illuminated
Dec 5
Waxing Crescent
Dec 9
First Quarter
Dec 17
Full
Dec 25
Last Quarter
Jan 1
New

Hourly Weather History & Observations

Time (EST) Temp. Windchill Dew Point Humidity Pressure Visibility Wind Dir Wind Speed Gust Speed Precip Events Conditions
12:52 AM 7.8 °C 5.5 °C 3.9 °C 76% 1020.7 hPa 11.3 km ENE 13.0 km/h / 3.6 m/s - N/A   Overcast
1:00 AM 8.0 °C 5.5 °C 4.0 °C 76% 1020.5 hPa 11.3 km NE 14.8 km/h / 4.1 m/s - N/A   Overcast
1:52 AM 7.8 °C 4.8 °C 5.0 °C 83% 1020.9 hPa 12.9 km ENE 18.5 km/h / 5.1 m/s - N/A   Overcast
2:17 AM 8.0 °C 5.5 °C 5.0 °C 81% 1020.9 hPa 11.3 km ENE 14.8 km/h / 4.1 m/s - N/A   Overcast
2:52 AM 7.8 °C 5.0 °C 5.6 °C 86% 1020.6 hPa 8.0 km ENE 16.7 km/h / 4.6 m/s - 0.0 mm Rain Light Rain
3:19 AM 8.0 °C 5.3 °C 6.0 °C 87% 1020.5 hPa 9.7 km ENE 16.7 km/h / 4.6 m/s - 0.0 mm   Overcast
3:52 AM 8.3 °C - 6.1 °C 86% 1020.4 hPa 8.0 km ENE 16.7 km/h / 4.6 m/s - 0.0 mm   Overcast
4:52 AM 8.3 °C - 7.2 °C 93% 1020.0 hPa 8.0 km ENE 14.8 km/h / 4.1 m/s - 0.0 mm   Overcast
5:08 AM 8.0 °C 5.3 °C 7.0 °C 93% 1019.5 hPa 8.0 km ENE 16.7 km/h / 4.6 m/s - N/A   Overcast
5:30 AM 8.0 °C 5.8 °C 7.0 °C 93% 1019.9 hPa 4.0 km ENE 13.0 km/h / 3.6 m/s - 0.3 mm Rain Light Rain
5:52 AM 8.3 °C - 7.2 °C 93% 1019.6 hPa 4.0 km ENE 13.0 km/h / 3.6 m/s - 0.5 mm Rain Light Rain
6:31 AM 9.0 °C - 8.0 °C 93% 1019.9 hPa 4.8 km NE 13.0 km/h / 3.6 m/s - 0.3 mm Rain Light Rain
6:50 AM 9.0 °C - 8.0 °C 93% 1018.8 hPa 4.0 km ENE 18.5 km/h / 5.1 m/s - 0.3 mm   Overcast
6:52 AM 8.9 °C - 7.8 °C 93% 1019.0 hPa 4.0 km ENE 16.7 km/h / 4.6 m/s - 0.3 mm   Overcast
7:04 AM 9.0 °C - 8.0 °C 93% 1018.8 hPa 4.8 km ENE 18.5 km/h / 5.1 m/s - N/A   Overcast
7:41 AM 9.0 °C - 9.0 °C 100% 1019.5 hPa 3.2 km ENE 16.7 km/h / 4.6 m/s - N/A   Overcast
7:49 AM 9.0 °C - 9.0 °C 100% 1019.5 hPa 2.8 km NE 14.8 km/h / 4.1 m/s - N/A   Overcast
7:52 AM 9.4 °C - 8.9 °C 97% 1019.5 hPa 2.8 km NE 13.0 km/h / 3.6 m/s - N/A   Overcast
8:21 AM 9.0 °C - 9.0 °C 100% 1019.2 hPa 2.0 km ENE 11.1 km/h / 3.1 m/s - N/A   Overcast
8:52 AM 10.0 °C - 9.4 °C 96% 1019.0 hPa 2.0 km ENE 13.0 km/h / 3.6 m/s - N/A   Overcast
9:52 AM 10.6 °C - 10.0 °C 96% 1019.2 hPa 2.0 km ENE 13.0 km/h / 3.6 m/s - N/A   Overcast
10:52 AM 10.6 °C - 10.0 °C 96% 1018.8 hPa 1.6 km ENE 13.0 km/h / 3.6 m/s - N/A   Overcast
11:52 AM 11.1 °C - 11.1 °C 100% 1017.9 hPa 2.8 km NE 9.3 km/h / 2.6 m/s - N/A   Overcast
12:08 PM 12.0 °C - 12.0 °C 100% 1017.5 hPa 3.2 km Calm Calm - N/A   Overcast
12:52 PM 12.2 °C - 11.1 °C 93% 1016.7 hPa 2.8 km ENE 5.6 km/h / 1.5 m/s - N/A   Overcast
1:16 PM 12.0 °C - 12.0 °C 100% 1016.5 hPa 2.4 km Calm Calm - N/A   Overcast
1:52 PM 11.7 °C - 11.1 °C 96% 1016.0 hPa 1.2 km ENE 5.6 km/h / 1.5 m/s - N/A   Overcast
2:17 PM 12.0 °C - 12.0 °C 100% 1015.8 hPa 2.4 km Calm Calm - N/A   Overcast
2:26 PM 12.0 °C - 12.0 °C 100% 1015.8 hPa 2.8 km ESE 5.6 km/h / 1.5 m/s - N/A   Overcast
2:38 PM 12.0 °C - 11.0 °C 94% 1015.8 hPa 1.6 km East 5.6 km/h / 1.5 m/s - N/A   Overcast
2:43 PM 11.0 °C - 11.0 °C 100% 1016.1 hPa 0.8 km Calm Calm - N/A Fog Fog
2:52 PM 11.1 °C - 11.1 °C 100% 1016.2 hPa 0.8 km Calm Calm - N/A Fog Fog
3:00 PM 11.0 °C - 11.0 °C 100% 1016.1 hPa 1.2 km East 5.6 km/h / 1.5 m/s - N/A   Overcast
3:15 PM 11.0 °C - 11.0 °C 100% 1016.1 hPa 0.8 km East 5.6 km/h / 1.5 m/s - N/A Fog Fog
3:25 PM 11.0 °C - 11.0 °C 100% 1016.5 hPa 0.4 km Calm Calm - N/A Fog Fog
3:38 PM 11.0 °C - 11.0 °C 100% 1016.5 hPa 1.2 km Calm Calm - N/A   Overcast
3:52 PM 10.6 °C - 10.6 °C 100% 1016.5 hPa 1.6 km Calm Calm - N/A   Overcast
4:02 PM 11.0 °C - 10.0 °C 94% 1016.1 hPa 1.2 km ESE 5.6 km/h / 1.5 m/s - N/A   Overcast
4:31 PM 11.0 °C - 10.0 °C 94% 1015.8 hPa 2.4 km ESE 7.4 km/h / 2.1 m/s - N/A   Overcast
4:40 PM 11.0 °C - 10.0 °C 94% 1015.8 hPa 4.0 km ESE 9.3 km/h / 2.6 m/s - N/A   Overcast
4:50 PM 11.0 °C - 10.0 °C 94% 1015.8 hPa 4.0 km ESE 7.4 km/h / 2.1 m/s - N/A   Overcast
4:52 PM 10.6 °C - 10.0 °C 96% 1016.0 hPa 4.0 km ESE 7.4 km/h / 2.1 m/s - N/A   Overcast
5:07 PM 11.0 °C - 11.0 °C 100% 1015.8 hPa 4.8 km East 5.6 km/h / 1.5 m/s - N/A   Overcast
5:17 PM 11.0 °C - 10.0 °C 94% 1016.1 hPa 4.0 km East 7.4 km/h / 2.1 m/s - N/A   Overcast
5:24 PM 11.0 °C - 10.0 °C 94% 1016.1 hPa 4.8 km ENE 7.4 km/h / 2.1 m/s - N/A   Overcast
5:31 PM 11.0 °C - 10.0 °C 94% 1016.1 hPa 4.8 km ENE 7.4 km/h / 2.1 m/s - N/A   Overcast
5:52 PM 11.1 °C - 11.1 °C 100% 1016.3 hPa 6.4 km Calm Calm - N/A   Overcast
6:15 PM 12.0 °C - 11.0 °C 94% 1016.5 hPa 9.7 km WSW 5.6 km/h / 1.5 m/s - N/A   Overcast
6:52 PM 12.2 °C - 11.7 °C 97% 1016.4 hPa 9.7 km Calm Calm - N/A   Overcast
7:49 PM 12.0 °C - 11.0 °C 94% 1015.8 hPa 2.8 km Calm Calm - N/A   Overcast
7:52 PM 11.7 °C - 11.1 °C 96% 1015.6 hPa 2.4 km South 5.6 km/h / 1.5 m/s - N/A   Overcast
8:14 PM 12.0 °C - 11.0 °C 94% 1015.5 hPa 2.8 km South 9.3 km/h / 2.6 m/s - N/A   Overcast
8:26 PM 12.0 °C - 11.0 °C 94% 1015.5 hPa 3.2 km South 14.8 km/h / 4.1 m/s - N/A   Overcast
8:38 PM 12.0 °C - 11.0 °C 94% 1015.5 hPa 4.0 km South 16.7 km/h / 4.6 m/s - N/A   Overcast
8:43 PM 12.0 °C - 11.0 °C 94% 1015.5 hPa 4.8 km South 16.7 km/h / 4.6 m/s - N/A   Overcast
8:52 PM 11.7 °C - 11.1 °C 96% 1015.7 hPa 4.8 km SSW 16.7 km/h / 4.6 m/s - N/A   Overcast
9:04 PM 12.0 °C - 11.0 °C 94% 1015.5 hPa 4.8 km SSW 13.0 km/h / 3.6 m/s - N/A   Overcast
9:52 PM 11.7 °C - 11.1 °C 96% 1015.1 hPa 6.4 km South 16.7 km/h / 4.6 m/s - 0.0 mm Rain Light Rain
10:22 PM 11.0 °C - 11.0 °C 100% 1014.8 hPa 4.8 km South 14.8 km/h / 4.1 m/s - 0.3 mm Rain Light Rain
10:52 PM 11.7 °C - 11.1 °C 96% 1014.6 hPa 4.8 km South 13.0 km/h / 3.6 m/s - 0.3 mm   Overcast
11:00 PM 11.0 °C - 11.0 °C 100% 1014.4 hPa 3.2 km South 7.4 km/h / 2.1 m/s - N/A   Overcast
11:08 PM 11.0 °C - 11.0 °C 100% 1014.4 hPa 2.0 km SSW 7.4 km/h / 2.1 m/s - N/A   Overcast
11:17 PM 11.0 °C - 11.0 °C 100% 1014.4 hPa 1.2 km Calm Calm - N/A   Mist
11:29 PM 11.0 °C - 11.0 °C 100% 1014.4 hPa 0.8 km Calm Calm - N/A Fog Fog
11:48 PM 12.0 °C - 11.0 °C 94% 1014.1 hPa 1.2 km SSW 14.8 km/h / 4.1 m/s - N/A   Mist
11:52 PM 11.1 °C - 11.1 °C 100% 1014.2 hPa 1.2 km SSW 9.3 km/h / 2.6 m/s - N/A   Mist